BREEZE-KM R/B

Satellite information

Favourite Embed

Satellite Type and Status

ROCKET BODYIN ORBIT

Key statistics

Satellite BREEZE-KM R/B at a glance.

Uptime

2187

Days in orbit

Revolutions

≈ 12.8

Per day

Orbit

LEO

Low Earth Orbit

Inclination

82.5

Latest

Satellite identification and parameters

Extended collection of information and parameters for BREEZE-KM R/B.

Object identification

Identified? True

Debris? False

Object name: BREEZE-KM R/B

International designator: 2019-096E

Object number (NORAD): 44909

Object ID (CCSDS): 44909

Country: COMMONWEALTH OF INDEPENDENT STATES (CIS)

Current information (Y/N): Y

RCS size: LARGE

Orbital parameters

Period: 112.522 minutes

Inclination: 82.5215 deg

SMA: 7720.628 km

Apoapsis: 1510.278 km

Periapsis: 1174.708 km

RAAN: 98.5434 deg

Eccentricy: 0.02173209

Argument of periapsis: 202.2263 deg

Mean anomaly: 156.9309 deg

Mean motion: 12.7974614 rev/day

Mean motion (dot): 0.00000018 rev/day2

B* drag term: 0.000030629486 1/REarth

Two-line elements (TLE)

Creation date: Dec. 20, 2025, 5:42 p.m.

Reference frame: TEME

Reference center: EARTH

Epoch: Dec. 20, 2025, 8:42 a.m. UTC

TLE line 0: 0 BREEZE-KM R/B

TLE line 1: 1 44909U 19096E 25354.36315210 .00000018 00000-0 30629-4 0 9994

TLE line 2: 2 44909 82.5215 98.5434 0217321 202.2263 156.9309 12.79746140279470

Live tracking on map

Real-time ground track for satellite BREEZE-KM R/B.

In-orbit conjunctions

A list of the most updated potential collisions computed for object BREEZE-KM R/B.

Target Orbit TCA Probability of collision Miss distance Type
DELTA 1 DEB SSO 2025-08-04 05:02:33 0.0002114262 385.0 (m) DEBRIS

Associated space launch

Gonets-M are an upgraded version of Gonets satellites, derived from military communications system Strela-3. Gonets-M constellation is tasked with monitoring ecological and industrial objects, providing communication and data transmission services, covering also the remote areas like the Far North region. Gonets-M satellites share the ride with the Blits-M microsatellite, which is a geodesic satellite tasked with determining precise orbit parameters for GLONASS satellites.

BREEZE-KM R/B was lifted into orbit during the mission ‘Rokot/Briz-KM | Gonets-M24, Gonets-M25, Gonets-M26 & Blits-M’, on board a Rokot/Briz-KM space rocket.

The launch took place on Dec. 26, 2019, 11:11 p.m. from 133/3 (133L).

For more information about the launch, click the button.

Launch to space Rokot/Briz-KM | Gonets-M24, Gonets-M25, Gonets-M26 & Blits-M
Rokot/Briz-KM | Gonets-M24, Gonets-M25, Gonets-M26 & Blits-M

Agency: N/A

Status: Launch Successful

Launch date: Dec. 26, 2019, 11:11 p.m. UTC

Rocket: Rokot/Briz-KM

Launch pad: 133/3 (133L)

Location: Plesetsk Cosmodrome, Russian Federation

...

Latest news about this satellite

News about space launch
Rokot conducts final launch – carries three Gonets-M satellites to orbit

News about space launch
Russia launches final Rockot with trio of communications satellites

News about space launch
Russia retires Rockot launcher after liftoff with four satellites


Newsletter sign-up

Weekly statistics, charts and insights to help you stay on top of the space industry.